UAE89Y LIPE-OMDB

Flight info

Callsign UAE89Y
Flight time N/A
Altitude 39000
Route PELEG DCT ESODU DCT LUXIL DCT LATAN UM872 PLH UL604 SALUN N705 MMA P751 DASUM Y234 FYM M872 LUBOS/N0484F410 M872 EVANO J852 BOVET DCT MEDRO J852 BDB Y214 RAPMA DCT KUVSO DCT KATIT DCT PEKEM M628 RIGIL G783 ELUDA/N0504F350 G783 ASPED Q308 KIPOK Q568 IMPED
Aircraft A359/H-SDE2E3GHIJ3J4J5LM1ORWXY/LB1D1

Departure

Time N/A
Airport Bologna Guglielmo Marconi Airport (LIPE)

Arrival

Time 2026-05-07 21:11
Airport Dubai International Airport (OMDB)
Time Latitude Longitude Altitude Speed Heading
2026-05-07 18:49 25.46681 37.91927 38896 ft 510 kts 128°
2026-05-07 18:50 25.43221 37.98786 38884 ft 510 kts 128°
2026-05-07 18:50 25.39781 38.05594 38888 ft 509 kts 128°
2026-05-07 18:51 25.36317 38.12439 38888 ft 509 kts 128°
2026-05-07 18:51 25.32848 38.19266 38847 ft 509 kts 128°
2026-05-07 18:52 25.29393 38.26080 38889 ft 506 kts 129°
2026-05-07 18:52 25.25971 38.32823 38890 ft 505 kts 129°
2026-05-07 18:53 25.23089 38.38488 38894 ft 505 kts 129°
2026-05-07 18:53 25.19642 38.45245 38896 ft 505 kts 129°
2026-05-07 18:54 25.16194 38.51998 38904 ft 505 kts 129°
2026-05-07 18:54 25.12745 38.58750 38903 ft 505 kts 129°
2026-05-07 18:55 25.09281 38.65498 38881 ft 505 kts 130°
2026-05-07 18:55 25.05836 38.72201 38908 ft 506 kts 130°
2026-05-07 18:56 25.02373 38.78937 38910 ft 504 kts 130°
2026-05-07 18:56 24.98912 38.85662 38924 ft 504 kts 130°
2026-05-07 18:57 24.95761 38.92664 38923 ft 521 kts 120°
2026-05-07 18:57 24.93405 39.00278 38925 ft 527 kts 118°
2026-05-07 18:58 24.91213 39.07944 38927 ft 527 kts 118°
2026-05-07 18:58 24.89014 39.15651 38917 ft 527 kts 118°
2026-05-07 18:59 24.86794 39.23331 38930 ft 526 kts 118°
2026-05-07 18:59 24.84555 39.31012 38942 ft 526 kts 118°
2026-05-07 19:00 24.82319 39.38668 38926 ft 526 kts 119°
2026-05-07 19:00 24.80073 39.46332 38940 ft 528 kts 119°
2026-05-07 19:01 24.77814 39.54026 38946 ft 527 kts 119°
2026-05-07 19:01 24.75579 39.61642 38949 ft 526 kts 120°
2026-05-07 19:02 24.73307 39.69350 38953 ft 527 kts 120°
2026-05-07 19:02 24.71056 39.76975 38950 ft 527 kts 120°
2026-05-07 19:03 24.68789 39.84641 38951 ft 528 kts 120°
2026-05-07 19:03 24.66515 39.92317 38950 ft 528 kts 120°
2026-05-07 19:04 24.64235 39.99991 38949 ft 528 kts 120°
2026-05-07 19:04 24.61952 40.07662 38948 ft 528 kts 120°
2026-05-07 19:05 24.59660 40.15345 38945 ft 530 kts 120°
2026-05-07 19:05 24.57360 40.23041 38947 ft 530 kts 120°
2026-05-07 19:06 24.55073 40.30683 38944 ft 529 kts 119°
2026-05-07 19:06 24.51623 40.42175 38945 ft 528 kts 120°
2026-05-07 19:07 24.49313 40.49846 38938 ft 527 kts 119°
2026-05-07 19:07 24.47024 40.57445 38957 ft 525 kts 119°
2026-05-07 19:08 24.45431 40.65427 38943 ft 541 kts 107°
2026-05-07 19:08 24.44523 40.73611 38955 ft 544 kts 106°
2026-05-07 19:09 24.43710 40.81891 38950 ft 547 kts 106°
2026-05-07 19:09 24.42880 40.90218 38953 ft 547 kts 106°
2026-05-07 19:10 24.42035 40.98481 38959 ft 544 kts 106°
2026-05-07 19:10 24.41184 41.06673 38962 ft 542 kts 106°
2026-05-07 19:11 24.40328 41.14872 38955 ft 542 kts 106°
2026-05-07 19:11 24.39464 41.23067 38966 ft 539 kts 106°
2026-05-07 19:12 24.38598 41.31248 38971 ft 539 kts 106°
2026-05-07 19:12 24.37729 41.39416 38976 ft 538 kts 106°
2026-05-07 19:13 24.36864 41.47519 38982 ft 538 kts 106°
2026-05-07 19:13 24.35992 41.55653 38985 ft 537 kts 106°
2026-05-07 19:14 24.35112 41.63807 38985 ft 538 kts 105°
2026-05-07 19:14 24.34227 41.71966 38987 ft 539 kts 105°
2026-05-07 19:15 24.33328 41.80126 38973 ft 537 kts 106°
2026-05-07 19:15 24.31669 41.87911 38998 ft 524 kts 115°
2026-05-07 19:16 24.29683 41.95582 38998 ft 522 kts 116°
2026-05-07 19:16 24.27642 42.03230 38996 ft 522 kts 116°
2026-05-07 19:17 24.25607 42.10879 39004 ft 521 kts 115°
2026-05-07 19:17 24.23601 42.18453 39003 ft 521 kts 115°
2026-05-07 19:18 24.21574 42.26104 39006 ft 523 kts 115°
2026-05-07 19:18 24.19539 42.33766 39007 ft 523 kts 115°
2026-05-07 19:19 24.17512 42.41387 38999 ft 524 kts 115°
2026-05-07 19:19 24.15468 42.49056 39022 ft 523 kts 115°
2026-05-07 19:20 24.13434 42.56668 39025 ft 523 kts 115°
2026-05-07 19:20 24.11382 42.64325 39025 ft 523 kts 115°
2026-05-07 19:21 24.09335 42.71949 39037 ft 525 kts 115°
2026-05-07 19:21 24.07269 42.79627 39040 ft 525 kts 115°
2026-05-07 19:22 24.05211 42.87262 39048 ft 525 kts 115°
2026-05-07 19:22 24.03143 42.94919 39048 ft 525 kts 115°
2026-05-07 19:23 24.01067 43.02583 39041 ft 525 kts 115°
2026-05-07 19:23 23.98982 43.10256 39057 ft 527 kts 115°
2026-05-07 19:24 23.96903 43.17895 39062 ft 528 kts 115°
2026-05-07 19:24 23.94804 43.25600 39059 ft 528 kts 115°
2026-05-07 19:25 23.92702 43.33298 39077 ft 528 kts 115°
2026-05-07 19:25 23.90596 43.40993 39072 ft 528 kts 115°
2026-05-07 19:26 23.88501 43.48628 39065 ft 528 kts 115°
2026-05-07 19:26 23.86384 43.56323 39064 ft 528 kts 115°
2026-05-07 19:27 23.84264 43.64017 39056 ft 528 kts 115°
2026-05-07 19:27 23.82139 43.71713 39058 ft 529 kts 115°
2026-05-07 19:28 23.80023 43.79359 39051 ft 529 kts 115°
2026-05-07 19:28 23.77931 43.87078 39036 ft 532 kts 111°
2026-05-07 19:29 23.76891 43.95188 39037 ft 542 kts 102°
2026-05-07 19:29 23.76263 44.03356 39016 ft 543 kts 101°
2026-05-07 19:30 23.75684 44.11598 39020 ft 543 kts 101°
2026-05-07 19:30 23.75088 44.19818 39033 ft 543 kts 101°
2026-05-07 19:31 23.74471 44.28003 39025 ft 543 kts 101°
2026-05-07 19:31 23.73845 44.36211 39023 ft 543 kts 101°
2026-05-07 19:32 23.73214 44.44434 39018 ft 542 kts 101°
2026-05-07 19:32 23.72582 44.52613 39025 ft 540 kts 101°
2026-05-07 19:33 23.71951 44.60732 39026 ft 539 kts 101°
2026-05-07 19:33 23.71313 44.68875 39014 ft 538 kts 101°
2026-05-07 19:34 23.70672 44.77003 39004 ft 537 kts 101°
2026-05-07 19:34 23.70026 44.85131 39006 ft 536 kts 101°
2026-05-07 19:35 23.69381 44.93200 39005 ft 537 kts 101°
2026-05-07 19:35 23.68726 45.01332 38997 ft 537 kts 101°
2026-05-07 19:36 23.68070 45.09424 39004 ft 536 kts 101°
2026-05-07 19:36 23.67410 45.17523 38993 ft 535 kts 101°
2026-05-07 19:37 23.66753 45.25575 38990 ft 534 kts 101°
2026-05-07 19:37 23.66086 45.33653 38988 ft 534 kts 101°
2026-05-07 19:38 23.65411 45.41738 38989 ft 534 kts 101°
2026-05-07 19:38 23.64733 45.49818 38986 ft 534 kts 101°
2026-05-07 19:39 23.64059 45.57836 38964 ft 534 kts 101°
2026-05-07 19:39 23.63494 45.64533 38958 ft 532 kts 101°
2026-05-07 19:40 23.62700 45.73899 38947 ft 532 kts 101°
2026-05-07 19:40 23.62006 45.81941 38943 ft 532 kts 101°
2026-05-07 19:41 23.61311 45.89965 38944 ft 531 kts 101°
2026-05-07 19:41 23.60616 45.97959 38932 ft 531 kts 101°
2026-05-07 19:42 23.59915 46.05986 38943 ft 531 kts 101°
2026-05-07 19:42 23.59210 46.14003 38942 ft 531 kts 101°
2026-05-07 19:43 23.58505 46.21976 38944 ft 531 kts 101°
2026-05-07 19:43 23.57791 46.30000 38945 ft 530 kts 101°
2026-05-07 19:44 23.57076 46.37972 38950 ft 530 kts 101°
2026-05-07 19:44 23.56354 46.45999 38960 ft 531 kts 101°
2026-05-07 19:45 23.55633 46.53967 38956 ft 531 kts 101°
2026-05-07 19:45 23.54902 46.62005 38949 ft 531 kts 101°
2026-05-07 19:46 23.54174 46.69965 38953 ft 530 kts 101°
2026-05-07 19:46 23.53438 46.77957 38948 ft 529 kts 101°
2026-05-07 19:47 23.52821 46.84615 38936 ft 529 kts 101°
2026-05-07 19:47 23.51955 46.93908 38935 ft 529 kts 101°
2026-05-07 19:48 23.51333 47.00555 38928 ft 529 kts 101°
2026-05-07 19:48 23.50460 47.09835 38930 ft 528 kts 101°
2026-05-07 19:49 23.49827 47.16517 38921 ft 528 kts 101°
2026-05-07 19:49 23.49077 47.24408 38915 ft 527 kts 101°
2026-05-07 19:50 23.48315 47.32365 38913 ft 526 kts 101°
2026-05-07 19:50 23.47552 47.40299 38908 ft 526 kts 101°
2026-05-07 19:51 23.46788 47.48200 38904 ft 526 kts 101°
2026-05-07 19:51 23.46020 47.56138 38899 ft 526 kts 101°
2026-05-07 19:52 23.45246 47.64066 38903 ft 526 kts 101°
2026-05-07 19:52 23.44466 47.71988 38891 ft 526 kts 101°
2026-05-07 19:53 23.43689 47.79851 38890 ft 525 kts 101°
2026-05-07 19:53 23.42902 47.87777 38885 ft 525 kts 101°
2026-05-07 19:54 23.42117 47.95653 38880 ft 525 kts 101°
2026-05-07 19:54 23.41324 48.03557 38874 ft 525 kts 101°
2026-05-07 19:55 23.40527 48.11473 38868 ft 525 kts 101°
2026-05-07 19:55 23.39727 48.19368 38862 ft 525 kts 101°
2026-05-07 19:56 23.38924 48.27262 38854 ft 524 kts 101°
2026-05-07 19:56 23.38123 48.35104 38856 ft 524 kts 101°
2026-05-07 19:57 23.37665 48.43054 38856 ft 526 kts 96°
2026-05-07 19:57 23.37463 48.50987 38855 ft 527 kts 96°
2026-05-07 19:58 23.37214 48.58967 38858 ft 526 kts 96°
2026-05-07 19:58 23.36902 48.66918 38849 ft 526 kts 96°
2026-05-07 19:59 23.36566 48.74870 38847 ft 526 kts 96°
2026-05-07 19:59 23.36225 48.82822 38845 ft 526 kts 96°
2026-05-07 20:00 23.35883 48.90777 38838 ft 526 kts 96°
2026-05-07 20:00 23.35538 48.98719 38837 ft 525 kts 96°
2026-05-07 20:01 23.35096 49.06640 38836 ft 522 kts 102°
2026-05-07 20:01 23.34085 49.14426 38835 ft 521 kts 103°
2026-05-07 20:02 23.32965 49.22230 38836 ft 521 kts 103°
2026-05-07 20:02 23.31835 49.29973 38832 ft 521 kts 103°
2026-05-07 20:03 23.30700 49.37786 38831 ft 521 kts 103°
2026-05-07 20:03 23.29567 49.45595 38819 ft 521 kts 103°
2026-05-07 20:04 23.28442 49.53331 38837 ft 520 kts 103°
2026-05-07 20:04 23.27306 49.61111 38832 ft 521 kts 103°
2026-05-07 20:05 23.26165 49.68894 38834 ft 521 kts 103°
2026-05-07 20:05 23.25018 49.76699 38834 ft 521 kts 103°
2026-05-07 20:06 23.23873 49.84459 38831 ft 521 kts 103°
2026-05-07 20:06 23.22717 49.92260 38832 ft 521 kts 103°
2026-05-07 20:07 23.21565 50.00013 38822 ft 521 kts 103°
2026-05-07 20:07 23.20404 50.07803 38831 ft 521 kts 103°
2026-05-07 20:08 23.19242 50.15572 38831 ft 520 kts 103°
2026-05-07 20:08 23.18082 50.23296 38828 ft 520 kts 103°
2026-05-07 20:09 23.16909 50.31079 38829 ft 520 kts 103°
2026-05-07 20:10 23.15154 50.42676 38829 ft 520 kts 103°
2026-05-07 20:10 23.13973 50.50450 38826 ft 520 kts 103°
2026-05-07 20:11 23.12797 50.58163 38824 ft 519 kts 102°
2026-05-07 20:11 23.11611 50.65916 38824 ft 518 kts 102°
2026-05-07 20:12 23.10435 50.73579 38829 ft 517 kts 102°
2026-05-07 20:12 23.09244 50.81312 38826 ft 517 kts 102°
2026-05-07 20:13 23.08052 50.89025 38826 ft 517 kts 103°
2026-05-07 20:13 23.06860 50.96709 38826 ft 517 kts 103°
2026-05-07 20:14 23.05661 51.04416 38820 ft 518 kts 103°
2026-05-07 20:14 23.04463 51.12093 38815 ft 517 kts 102°
2026-05-07 20:15 23.03262 51.19770 38822 ft 514 kts 102°
2026-05-07 20:15 23.02061 51.27415 38822 ft 513 kts 102°
2026-05-07 20:16 23.00862 51.35019 38821 ft 513 kts 102°
2026-05-07 20:16 22.99653 51.42666 38818 ft 513 kts 102°
2026-05-07 20:17 22.98439 51.50321 38817 ft 513 kts 102°
2026-05-07 20:17 22.97232 51.57908 38815 ft 513 kts 102°
2026-05-07 20:18 22.96014 51.65539 38819 ft 512 kts 102°
2026-05-07 20:18 22.94792 51.73172 38819 ft 511 kts 103°
2026-05-07 20:19 22.93577 51.80736 38816 ft 511 kts 103°
2026-05-07 20:19 22.92349 51.88359 38814 ft 510 kts 103°
2026-05-07 20:20 22.91126 51.95922 38816 ft 510 kts 103°
2026-05-07 20:20 22.89900 52.03479 38818 ft 510 kts 103°
2026-05-07 20:21 22.88667 52.11063 38820 ft 510 kts 103°
2026-05-07 20:21 22.87433 52.18631 38814 ft 509 kts 103°
2026-05-07 20:22 22.86199 52.26170 38813 ft 509 kts 103°
2026-05-07 20:22 22.84959 52.33724 38818 ft 507 kts 103°
2026-05-07 20:23 22.83727 52.41207 38817 ft 507 kts 103°
2026-05-07 20:23 22.82584 52.48761 38819 ft 509 kts 97°
2026-05-07 20:24 22.82230 52.56408 38818 ft 510 kts 94°
2026-05-07 20:24 22.82032 52.64114 38818 ft 509 kts 94°
2026-05-07 20:25 22.81855 52.71770 38821 ft 509 kts 94°
2026-05-07 20:25 22.81662 52.79416 38821 ft 509 kts 94°
2026-05-07 20:26 22.81456 52.87107 38820 ft 509 kts 94°
2026-05-07 20:26 22.81245 52.94745 38818 ft 509 kts 94°
2026-05-07 20:27 22.81030 53.02441 38814 ft 509 kts 94°
2026-05-07 20:27 22.80814 53.10067 38818 ft 507 kts 94°
2026-05-07 20:28 22.80593 53.17712 38818 ft 507 kts 94°
2026-05-07 20:28 22.80369 53.25327 38821 ft 506 kts 94°
2026-05-07 20:29 22.80142 53.32936 38818 ft 507 kts 94°
2026-05-07 20:29 22.79910 53.40588 38817 ft 507 kts 94°
2026-05-07 20:30 22.79677 53.48184 38821 ft 507 kts 94°
2026-05-07 20:30 22.79437 53.55823 38820 ft 507 kts 94°
2026-05-07 20:31 22.79194 53.63492 38818 ft 507 kts 94°
2026-05-07 20:31 22.78950 53.71083 38817 ft 507 kts 94°
2026-05-07 20:32 22.78701 53.78710 38820 ft 507 kts 94°
2026-05-07 20:32 22.78447 53.86365 38818 ft 506 kts 94°
2026-05-07 20:33 22.78191 53.93963 38822 ft 505 kts 94°
2026-05-07 20:33 22.78521 54.01572 38824 ft 506 kts 81°
2026-05-07 20:34 22.79901 54.09067 38821 ft 507 kts 79°
2026-05-07 20:34 22.81425 54.16476 38818 ft 507 kts 78°
2026-05-07 20:35 22.82974 54.23963 38816 ft 507 kts 79°
2026-05-07 20:35 22.84492 54.31405 38817 ft 507 kts 79°
2026-05-07 20:36 22.86007 54.38905 38821 ft 507 kts 79°
2026-05-07 20:36 22.87511 54.46376 38820 ft 507 kts 79°
2026-05-07 20:37 22.89002 54.53805 38820 ft 507 kts 79°
2026-05-07 20:37 22.90507 54.61316 38820 ft 508 kts 79°
2026-05-07 20:38 22.91995 54.68762 38820 ft 508 kts 79°
2026-05-07 20:38 22.93239 54.74997 38820 ft 507 kts 79°
2026-05-07 20:39 22.94973 54.83719 38818 ft 508 kts 79°
2026-05-07 20:39 22.96212 54.89964 38818 ft 508 kts 79°
2026-05-07 20:40 22.97689 54.97427 38826 ft 508 kts 79°
2026-05-07 20:40 22.99171 55.04933 38826 ft 508 kts 79°
2026-05-07 20:41 23.00735 55.12431 38826 ft 508 kts 74°
2026-05-07 20:41 23.03725 55.19336 38835 ft 510 kts 55°
2026-05-07 20:42 23.08692 55.24808 38835 ft 510 kts 34°
2026-05-07 20:42 23.15049 55.28049 38846 ft 508 kts 13°
2026-05-07 20:43 23.21918 55.29886 38844 ft 509 kts 13°
2026-05-07 20:43 23.28786 55.31820 38845 ft 509 kts 13°
2026-05-07 20:44 23.35652 55.33797 38845 ft 509 kts 14°
2026-05-07 20:44 23.42472 55.35802 38845 ft 510 kts 14°
2026-05-07 20:45 23.48132 55.37478 38851 ft 511 kts 14°
2026-05-07 20:45 23.54247 55.39294 38854 ft 511 kts 14°
2026-05-07 20:46 23.61105 55.41326 38856 ft 511 kts 13°
2026-05-07 20:46 23.67999 55.43365 38856 ft 511 kts 13°
2026-05-07 20:47 23.74879 55.45404 38713 ft 512 kts 13°
2026-05-07 20:47 23.78302 55.46419 38477 ft 508 kts 13°
2026-05-07 20:47 23.81687 55.47426 38093 ft 501 kts 13°
2026-05-07 20:47 23.85005 55.48413 37442 ft 500 kts 13°
2026-05-07 20:48 23.88368 55.49414 36735 ft 501 kts 13°
2026-05-07 20:48 23.91734 55.50413 36047 ft 502 kts 13°
2026-05-07 20:48 23.95103 55.51413 35329 ft 503 kts 13°
2026-05-07 20:48 23.98467 55.52530 34565 ft 507 kts 19°
2026-05-07 20:49 24.01649 55.54262 33710 ft 513 kts 31°
2026-05-07 20:49 24.04517 55.56628 32784 ft 517 kts 38°
2026-05-07 20:49 24.07228 55.59158 31903 ft 520 kts 40°
2026-05-07 20:49 24.09926 55.61810 30992 ft 523 kts 41°
2026-05-07 20:50 24.12619 55.64517 30045 ft 526 kts 41°
2026-05-07 20:50 24.15322 55.67249 28958 ft 529 kts 41°
2026-05-07 20:50 24.18022 55.69970 28262 ft 523 kts 41°
2026-05-07 20:50 24.20696 55.72652 27595 ft 517 kts 41°
2026-05-07 20:51 24.23313 55.75266 26899 ft 512 kts 41°
2026-05-07 20:51 24.25949 55.77892 26213 ft 507 kts 41°
2026-05-07 20:51 24.28563 55.80491 25531 ft 503 kts 41°
2026-05-07 20:51 24.31124 55.83037 24866 ft 498 kts 41°
2026-05-07 20:52 24.33690 55.85590 24194 ft 494 kts 42°
2026-05-07 20:52 24.36205 55.88094 23529 ft 488 kts 42°
2026-05-07 20:52 24.38657 55.90538 22796 ft 472 kts 42°
2026-05-07 20:52 24.41065 55.92944 22144 ft 466 kts 42°
2026-05-07 20:53 24.43452 55.95324 21502 ft 460 kts 42°
2026-05-07 20:53 24.45813 55.97676 20878 ft 454 kts 43°
2026-05-07 20:53 24.48145 56.00002 20224 ft 448 kts 43°
2026-05-07 20:53 24.50414 56.02267 19596 ft 443 kts 43°
2026-05-07 20:54 24.52685 56.04535 18958 ft 438 kts 43°
2026-05-07 20:54 24.54932 56.06785 18306 ft 434 kts 43°
2026-05-07 20:54 24.57129 56.08990 17622 ft 429 kts 43°
2026-05-07 20:54 24.59484 56.10970 17020 ft 422 kts 32°
2026-05-07 20:55 24.62144 56.12293 16443 ft 416 kts 19°
2026-05-07 20:55 24.64911 56.13122 15796 ft 413 kts 14°
2026-05-07 20:55 24.67736 56.13742 15163 ft 410 kts 11°
2026-05-07 20:55 24.70505 56.14239 14550 ft 407 kts 10°
2026-05-07 20:56 24.73312 56.14701 14078 ft 399 kts 10°
2026-05-07 20:56 24.75981 56.15136 13967 ft 382 kts 10°
2026-05-07 20:56 24.78582 56.15273 13843 ft 367 kts 357°
2026-05-07 20:56 24.81058 56.14844 13719 ft 353 kts 349°
2026-05-07 20:57 24.83356 56.13985 13474 ft 344 kts 335°
2026-05-07 20:57 24.85279 56.12542 13222 ft 337 kts 316°
2026-05-07 20:57 24.86658 56.10492 12901 ft 330 kts 300°
2026-05-07 20:57 24.87748 56.08286 12537 ft 326 kts 298°
2026-05-07 20:58 24.88776 56.06092 11997 ft 318 kts 297°
2026-05-07 20:58 24.89779 56.03931 11511 ft 314 kts 297°
2026-05-07 20:58 24.90757 56.01817 10725 ft 309 kts 297°
2026-05-07 20:58 24.91716 55.99739 10349 ft 295 kts 296°
2026-05-07 20:59 24.92616 55.97788 10032 ft 282 kts 296°
2026-05-07 20:59 24.93498 55.95873 9516 ft 276 kts 296°
2026-05-07 20:59 24.94346 55.94031 9043 ft 269 kts 296°
2026-05-07 20:59 24.95186 55.92208 8680 ft 266 kts 296°
2026-05-07 21:00 24.96024 55.90387 8363 ft 263 kts 296°
2026-05-07 21:00 24.96838 55.88617 8075 ft 261 kts 296°
2026-05-07 21:00 24.97658 55.86833 7800 ft 259 kts 296°
2026-05-07 21:00 24.98472 55.85063 7515 ft 257 kts 296°
2026-05-07 21:01 24.99270 55.83327 7241 ft 253 kts 296°
2026-05-07 21:01 25.00058 55.81630 7083 ft 243 kts 298°
2026-05-07 21:01 25.00913 55.80060 6950 ft 233 kts 302°
2026-05-07 21:01 25.01770 55.78580 6805 ft 224 kts 302°
2026-05-07 21:02 25.02587 55.77160 6692 ft 213 kts 301°
2026-05-07 21:02 25.03352 55.75815 6498 ft 207 kts 301°
2026-05-07 21:02 25.04111 55.74480 6210 ft 205 kts 301°
2026-05-07 21:02 25.04858 55.73148 5953 ft 202 kts 301°
2026-05-07 21:03 25.05617 55.71831 5827 ft 203 kts 302°
2026-05-07 21:03 25.06382 55.70521 5706 ft 202 kts 301°
2026-05-07 21:03 25.07117 55.69219 5591 ft 201 kts 300°
2026-05-07 21:03 25.07854 55.67903 5474 ft 201 kts 300°
2026-05-07 21:04 25.08592 55.66584 5338 ft 201 kts 300°
2026-05-07 21:04 25.09313 55.65288 5126 ft 201 kts 300°
2026-05-07 21:04 25.10040 55.63971 4891 ft 200 kts 299°
2026-05-07 21:04 25.10763 55.62664 4623 ft 199 kts 299°
2026-05-07 21:05 25.11490 55.61353 4340 ft 198 kts 299°
2026-05-07 21:05 25.12202 55.60066 4073 ft 197 kts 299°
2026-05-07 21:05 25.12913 55.58783 3831 ft 191 kts 299°
2026-05-07 21:05 25.13590 55.57561 3590 ft 186 kts 299°
2026-05-07 21:06 25.14258 55.56353 3353 ft 181 kts 299°
2026-05-07 21:06 25.14896 55.55202 3134 ft 175 kts 299°
2026-05-07 21:06 25.15520 55.54075 2927 ft 169 kts 299°
2026-05-07 21:06 25.16117 55.52996 2701 ft 159 kts 299°
2026-05-07 21:07 25.16672 55.51993 2520 ft 148 kts 300°
2026-05-07 21:07 25.17187 55.51062 2337 ft 138 kts 300°
2026-05-07 21:07 25.17678 55.50174 2178 ft 134 kts 300°
2026-05-07 21:07 25.18164 55.49296 2001 ft 134 kts 300°
2026-05-07 21:08 25.18644 55.48427 1831 ft 133 kts 301°
2026-05-07 21:08 25.19127 55.47555 1653 ft 133 kts 301°
2026-05-07 21:08 25.19609 55.46682 1491 ft 132 kts 301°
2026-05-07 21:08 25.20084 55.45824 1329 ft 132 kts 301°
2026-05-07 21:09 25.20566 55.44953 1152 ft 132 kts 301°
2026-05-07 21:09 25.21049 55.44079 987 ft 133 kts 301°
2026-05-07 21:09 25.21529 55.43211 844 ft 134 kts 301°
2026-05-07 21:09 25.22027 55.42323 672 ft 137 kts 301°
2026-05-07 21:10 25.22524 55.41439 517 ft 137 kts 301°
2026-05-07 21:10 25.23011 55.40525 305 ft 137 kts 300°
2026-05-07 21:10 25.23509 55.39621 150 ft 139 kts 300°
2026-05-07 21:10 25.24015 55.38714 32 ft 134 kts 300°
2026-05-07 21:11 25.24425 55.37974 28 ft 71 kts 303°
2026-05-07 21:11 25.24539 55.37772 28 ft 16 kts 301°
2026-05-07 21:11 25.24616 55.37436 28 ft 3 kts 271°
2026-05-07 21:12 25.24616 55.37412 28 ft 5 kts 271°
2026-05-07 21:12 25.24617 55.37364 28 ft 8 kts 271°
2026-05-07 21:12 25.24620 55.37290 28 ft 11 kts 277°
2026-05-07 21:12 25.24652 55.37211 28 ft 12 kts 300°
2026-05-07 21:13 25.24699 55.37122 28 ft 15 kts 300°
2026-05-07 21:13 25.24760 55.37015 28 ft 18 kts 303°
2026-05-07 21:13 25.24828 55.36892 28 ft 20 kts 299°
2026-05-07 21:13 25.24867 55.36741 28 ft 22 kts 282°
2026-05-07 21:14 25.24931 55.36585 28 ft 23 kts 300°
2026-05-07 21:14 25.24935 55.36444 28 ft 13 kts 233°
2026-05-07 21:14 25.24859 55.36385 28 ft 12 kts 212°
2026-05-07 21:14 25.24851 55.36380 28 ft 0 kts 213°
2026-05-07 21:15 25.24844 55.36375 28 ft 0 kts 213°